Location: Barnston
(51.8500°N, 0.4000°E)
Time: 00:10:06
(UTC+00:00)

NOSS 2-3 (E) - Visible Passes

Search period start: 19 April 2024 00:00
Search period end: 29 April 2024 00:00
Orbit: 494 x 1705 km, 63.3° (Epoch: 16 April)

Date Brightness Start Highest point End Pass type
(mag) Time Alt. Az. Time Alt. Az. Time Alt. Az.
19 Apr 4.9 00:34:32 10° NW 00:39:37 56° NE 00:46:33 10° ESE visible
19 Apr 4.8 02:24:56 10° NW 02:30:20 45° SW 02:37:33 10° SSE visible
19 Apr 5.6 20:05:28 10° W 20:08:54 28° NNW 20:13:01 10° NE visible
19 Apr 6.1 21:57:24 10° NW 22:00:56 22° N 22:05:14 10° ENE visible
19 Apr 5.3 23:47:56 10° NW 23:52:43 42° NNE 23:59:03 10° ESE visible
20 Apr 4.4 01:38:08 10° NW 01:43:38 65° SW 01:51:06 10° SSE visible
20 Apr 6.0 03:29:59 10° WNW 03:33:51 17° WSW 03:38:19 10° SSW visible
20 Apr 6.1 21:10:23 10° NW 21:13:44 21° N 21:17:45 10° NE visible
20 Apr 5.7 23:01:19 10° NW 23:05:43 32° NNE 23:11:23 10° E visible
21 Apr 4.3 00:51:27 10° NW 00:56:51 89° NE 01:02:09 20° SE visible
21 Apr 5.5 02:42:24 10° WNW 02:47:18 26° WSW 02:49:14 23° SW visible
21 Apr 6.0 20:23:13 10° WNW 20:26:32 22° N 20:30:28 10° NE visible
21 Apr 5.9 22:14:36 10° NW 22:18:37 26° NNE 22:23:38 10° ENE visible
22 Apr 4.7 00:04:50 10° NW 00:10:01 64° NE 00:14:55 20° ESE visible
22 Apr 5.0 01:55:20 10° WNW 02:00:39 38° SW 02:02:05 35° SSW visible
22 Apr 6.0 21:27:47 10° NW 21:31:27 23° N 21:35:55 10° ENE visible
22 Apr 5.1 23:18:12 10° NW 23:23:07 47° NE 23:28:25 15° ESE visible
23 Apr 4.6 01:08:28 10° NW 01:13:56 56° SW 01:15:38 45° S visible
23 Apr 6.3 03:00:55 10° W 03:02:51 13° W 03:02:51 13° W visible
23 Apr 6.0 20:40:48 10° NW 20:44:13 21° N 20:48:19 10° NE visible
23 Apr 5.5 22:31:35 10° NW 22:36:07 35° NNE 22:42:03 10° E visible
24 Apr 4.3 00:21:43 10° NW 00:27:10 81° SW 00:29:29 44° SSE visible
24 Apr 5.8 02:12:57 10° WNW 02:16:43 21° WSW 02:16:43 21° WSW visible
24 Apr 6.0 19:53:40 10° WNW 19:56:59 22° N 20:00:56 10° NE visible
24 Apr 5.8 21:44:53 10° NW 21:49:02 28° NNE 21:54:18 10° E visible
24 Apr 4.5 23:35:03 10° NW 23:40:20 73° NE 23:43:32 33° ESE visible
25 Apr 5.3 01:25:42 10° WNW 01:30:46 33° WSW 01:30:46 33° WSW visible
25 Apr 5.9 20:58:05 10° NW 21:01:52 24° NNE 21:06:32 10° ENE visible
25 Apr 4.9 22:48:24 10° NW 22:53:26 53° NE 22:57:40 22° ESE visible
26 Apr 4.8 00:38:44 10° NW 00:44:11 48° SW 00:44:55 46° SSW visible
26 Apr 6.0 20:11:09 10° NW 20:14:39 22° N 20:18:51 10° NE visible
26 Apr 5.3 22:01:46 10° NW 22:06:27 39° NNE 22:11:54 13° E visible
26 Apr 4.4 23:51:56 10° NW 23:57:24 70° SW 23:59:09 50° SSE visible
27 Apr 6.1 01:43:31 10° WNW 01:46:24 18° WSW 01:46:24 18° WSW visible
27 Apr 5.6 21:15:04 10° NW 21:19:23 31° NNE 21:24:55 10° E visible
27 Apr 4.4 23:05:13 10° NW 23:10:35 83° NE 23:13:27 37° SE visible
28 Apr 5.6 00:56:03 10° WNW 01:00:42 28° WSW 01:00:42 28° WSW visible
28 Apr 5.8 20:28:17 10° NW 20:32:13 25° NNE 20:37:06 10° ENE visible
28 Apr 4.7 22:18:33 10° NW 22:23:41 60° NE 22:27:47 24° ESE visible
